SCP
-0 -0 -0 -0 -0 -1 -1 -1 -1 -1 -0 -0 -1 -1 -0 -0 -0 -0 -0 -0 -0 -0 0 0 0 0 0 0 0 -0 -0 -0 0 0 0 0 0 0 0 0 0 0 0
-1 -1 -0 -0 -0 -0 -1 -1 -1 -1 -0 -0 -0 -0 -1 -0 -0 -0 -0 -0 -0 -0 -0 0 0 0 0 0 0 0 0 0 0 0 0 0 0 0 0 0 0 0 0
-2 -1 -0 -1 -1 -1 -1 -0 -0 -0 -0 -0 -0 -0 -0 -1 -0 -0 -0 -0 -0 -0 -0 -0 -0 0 0 0 0 0 0 0 0 0 0 0 0 0 0 0 0 0 0
-2 -1 -1 -1 -1 -1 -1 -0 -0 -0 -0 -0 -0 -0 -0 -0 -0 -0 -0 -0 -0 -0 -0 -0 0 0 0 0 0 0 0 0 0 0 0 0 0 0 0 0 0 0 0
-1 -1 -1 -1 -1 -1 -1 -1 -0 -0 -0 -0 -0 -0 -0 -0 -0 -0 -0 -0 -0 -0 0 0 0 0 0 0 0 0 0 0 0 0 0 0 0 0 0 0 0 0 0
-1 -1 -1 -1 -1 -1 -1 -0 -0 -0 -0 -0 -0 -0 -0 -0 -0 -0 -0 -0 -0 -0 0 0 0 0 0 0 0 0 0 0 0 0 0 0 0 0 0 0 0 0 0
-0 -0 -1 -1 -1 -1 -0 -0 -0 -0 -0 -0 -0 -0 -0 -0 -0 -0 -0 -0 0 0 0 0 0 -0 0 0 0 0 0 0 0 0 0 0 0 0 0 0 0 0 0
0 0 0 -1 -1 -1 -1 -0 -0 -0 -0 -0 -0 -0 -0 -0 -0 -0 0 0 0 0 0 0 0 0 0 0 0 0 0 0 0 0 0 0 0 0 0 1 1 0 1
1 1 1 0 -0 -0 -0 -0 -0 -0 -0 -0 -0 -0 -0 -0 -0 -0 -0 -0 -0 0 0 0 0 0 -0 -0 0 0 0 0 0 0 0 0 0 0 0 1 1 1 1
2 1 1 1 0 0 0 -0 -0 -0 -0 -0 -0 -0 -0 -0 0 0 0 0 0 0 0 -0 0 0 -0 -0 0 0 0 0 0 0 0 0 0 0 0 1 1 1 1
1 1 1 1 1 1 0 0 0 -0 -0 -0 -0 -0 0 0 0 0 0 0 -0 -0 0 0 0 0 0 0 0 0 0 0 0 0 0 0 0 0 0 0 1 1 2
1 0 1 1 1 1 1 0 0 0 0 0 0 0 0 0 0 0 0 0 0 0 0 0 0 0 0 0 0 0 0 0 0 0 0 0 0 0 0 1 1 1 2
1 0 0 1 1 0 1 1 1 0 0 0 0 0 0 0 0 0 0 0 0 0 0 0 0 0 0 0 0 0 0 0 0 0 0 0 0 0 0 0 1 1 2
0 0 0 1 0 0 1 0 0 0 0 0 0 0 0 0 0 0 0 0 0 0 0 0 0 0 0 0 0 0 0 0 0 0 0 0 0 0 0 0 1 2 1
1 0 0 1 1 1 1 0 0 0 0 0 0 0 0 0 0 0 0 0 0 0 0 0 0 0 0 0 0 0 0 0 0 0 0 0 0 0 1 1 1 1 1
1 1 1 1 1 1 1 0 0 0 0 0 0 0 0 0 0 0 0 0 0 0 0 0 0 0 -0 0 0 0 0 0 0 0 0 0 0 0 1 1 1 1 1
1 1 0 0 1 1 0 0 0 0 0 0 0 0 0 0 0 0 0 0 0 0 0 0 -0 0 0 0 0 0 0 0 0 0 0 0 0 0 1 1 1 1 1
0 0 0 0 0 0 0 0 0 0 0 0 0 0 0 0 0 0 0 0 0 0 0 0 0 0 0 0 0 0 0 0 0 0 0 0 0 0 1 1 1 1 1
0 0 0 0 0 0 0 0 0 0 0 0 0 0 0 0 0 0 0 0 0 0 0 0 0 0 0 0 0 0 0 0 0 0 0 0 0 0 0 0 0 0 0
0 0 0 0 0 0 0 0 0 0 0 0 0 0 0 0 0 0 0 0 0 0 0 0 0 0 0 0 0 0 0 0 0 0 0 0 0 0 0 0 0 0 0
0 0 0 0 0 1 0 0 1 0 0 0 0 0 0 0 0 1 1 0 0 0 0 0 0 0 0 0 0 0 0 0 0 0 0 0 0 0 0 0 0 0 0
0 0 0 0 1 1 1 1 1 1 1 1 1 1 1 1 1 1 1 0 0 0 0 0 0 0 0 0 0 0 0 0 0 0 0 0 0 0 0 0 0 0 0
0 0 0 0 0 1 1 2 1 1 1 1 1 1 1 1 0 0 0 0 0 0 0 0 0 0 0 0 0 0 0 0 0 0 0 0 0 0 0 0 0 0 0
0 0 0 0 0 0 1 2 2 1 1 0 0 0 0 0 0 0 0 0 0 0 0 0 0 0 0 0 0 0 0 0 0 0 0 0 0 0 0 0 0 0 0
0 0 0 0 0 0 0 1 0 0 0 0 0 0 0 0 0 0 0 0 0 0 0 0 0 0 0 0 0 0 0 0 0 0 0 0 0 0 0 0 0 0 0
0 0 0 0 0 0 0 0 0 0 0 0 0 0 0 0 0 0 0 0 0 0 0 0 0 0 0 0 0 0 0 0 0 0 0 0 0 0 0 0 0 0 0
Wind_Speed_500mb
65 63 62 61 57 50 44 38 38 42 39 38 37 35 33 33 34 40 41 38 35 32 31 30 28 26 23 21 21 22 22 20 19 23 24 22 19 17 14 15 14 14 13
75 72 68 64 60 52 44 38 37 38 38 37 37 37 38 38 40 42 40 36 33 31 29 27 25 22 20 19 20 21 19 18 18 22 23 20 18 16 16 16 14 14 13
75 77 71 66 62 54 46 39 36 36 36 37 38 41 42 44 45 42 39 35 31 27 24 24 22 20 18 17 17 18 18 18 18 19 16 13 13 15 17 18 17 15 14
75 79 73 68 64 56 48 41 36 34 34 37 40 43 44 45 44 40 36 31 27 23 20 20 18 16 15 15 15 14 16 18 16 11 7 6 6 9 12 18 20 20 20
78 78 73 69 64 57 50 44 37 34 33 37 41 43 44 43 40 36 32 28 24 22 19 17 16 15 14 14 15 15 20 18 13 9 4 3 4 8 15 21 21 23 24
81 77 74 70 64 58 52 46 39 34 33 35 39 40 40 38 36 33 29 25 22 19 17 18 18 17 16 16 17 19 20 16 11 5 4 8 8 11 12 18 22 24 25
82 77 73 70 65 60 53 47 41 36 33 32 36 38 37 33 32 31 29 27 25 23 21 20 20 20 20 20 18 18 19 15 10 8 11 13 16 17 17 16 21 22 25
78 76 71 68 63 59 54 49 44 37 32 29 31 35 34 32 31 29 28 28 26 25 24 22 22 22 21 18 15 13 14 16 17 14 16 16 19 23 24 23 25 24 27
75 73 70 68 62 58 54 48 44 39 34 30 30 33 34 30 29 28 27 26 25 23 21 20 18 15 11 9 8 7 7 10 13 17 20 26 32 31 30 32 32 30 33
75 73 72 69 65 61 56 50 44 41 36 31 28 29 32 31 28 27 25 23 19 17 15 12 9 6 3 2 5 8 12 13 15 14 15 20 25 28 28 26 31 34 39
77 74 73 72 67 62 58 54 48 43 39 35 31 29 31 32 30 25 22 19 16 13 10 8 5 1 2 4 5 7 11 13 11 14 18 20 19 18 22 29 34 38 38
83 77 71 69 67 64 62 59 54 50 45 38 33 31 30 30 30 27 24 20 16 13 9 5 1 3 3 2 6 9 12 12 14 17 21 23 25 27 32 37 43 43 37
86 80 73 66 64 64 65 63 57 51 46 42 36 31 30 30 31 30 25 20 13 8 8 12 9 10 8 3 6 11 15 18 22 27 28 30 32 32 34 38 41 43 39
83 77 72 67 62 63 63 62 59 54 48 43 36 32 32 32 32 31 26 20 19 15 13 9 4 1 3 6 11 15 20 23 26 32 37 38 38 39 42 44 48 50 48
80 79 73 67 62 57 57 57 53 50 46 39 36 35 34 32 30 30 30 26 18 15 10 8 5 2 8 14 20 26 30 32 34 37 39 39 40 42 42 43 44 48 53
74 73 73 68 59 55 54 52 49 45 41 39 36 35 35 34 32 30 36 26 18 11 9 9 7 8 13 19 22 28 31 32 33 37 43 45 46 47 46 46 50 45 47
72 69 71 69 62 56 52 49 47 43 40 38 35 35 37 38 36 32 28 23 16 14 14 13 12 11 17 25 32 33 36 37 40 43 45 45 46 49 51 49 41 43 47
73 68 66 66 62 58 55 51 46 41 38 37 38 36 36 35 32 30 24 20 16 16 16 12 12 18 25 33 37 37 37 37 37 37 38 37 35 33 32 30 28 26 29
77 71 68 64 60 56 52 50 41 43 38 37 36 31 37 38 33 25 28 28 24 22 27 18 18 23 30 34 37 36 33 36 37 33 34 28 34 34 31 27 30 36 38
77 74 67 59 59 58 53 46 38 46 45 41 37 34 33 36 32 31 28 29 32 36 32 26 26 27 31 36 37 36 39 42 36 37 25 38 30 31 33 37 43 46 47
77 81 73 65 61 62 63 59 52 58 49 43 41 40 42 41 41 37 34 31 30 42 38 31 28 25 28 33 38 44 46 38 36 20 38 26 34 33 39 42 43 44 45
75 83 77 68 63 64 62 65 64 60 53 50 46 43 40 49 44 42 38 28 39 47 29 25 22 21 25 31 36 40 23 37 26 41 34 40 35 48 45 49 46 43 42
74 76 72 66 60 55 68 70 67 52 46 48 48 45 43 47 44 36 36 20 32 32 27 20 19 19 22 27 31 21 11 9 46 21 35 39 48 51 59 58 52 48 45
64 69 71 64 65 60 74 72 62 51 53 50 40 34 34 42 17 11 10 11 41 29 18 14 15 20 24 28 24 20 23 28 15 20 18 31 47 55 55 52 45 39 40
63 58 66 63 68 67 73 78 66 57 64 49 34 28 25 26 5 6 23 40 33 17 11 13 16 20 25 24 27 31 33 36 28 37 27 56 54 54 54 45 41 36 40
59 66 71 68 63 69 71 70 69 60 67 49 21 6 4 9 27 34 35 30 14 10 10 12 16 20 22 25 27 30 32 34 38 37 50 57 59 62 58 48 42 46 48
Wind_Direction_500mb
183 177 170 171 170 168 165 162 160 163 163 164 163 160 155 150 149 146 144 140 139 142 138 135 134 129 128 122 114 110 109 110 107 101 95 93 94 90 70 61 50 52 58
176 175 172 172 171 169 165 159 156 157 162 164 162 160 157 154 151 148 145 143 143 140 139 141 140 135 130 127 121 116 114 113 112 104 96 96 87 73 62 52 36 21 16
174 172 173 173 173 171 166 160 156 157 159 162 161 158 154 153 152 151 149 147 145 141 141 144 143 136 130 127 124 124 126 125 121 119 101 101 81 63 48 34 18 1 350
174 173 174 174 175 173 169 162 159 155 156 159 158 155 154 155 154 155 155 152 149 148 147 148 149 142 134 132 133 135 134 137 137 136 140 115 77 40 21 2 1 348 337
173 173 175 176 175 174 172 167 162 157 154 157 158 157 157 157 158 159 159 155 152 152 154 152 150 150 145 142 145 148 144 144 148 154 173 217 304 359 3 360 355 350 337
173 174 176 177 176 175 173 169 165 160 154 157 160 160 159 160 161 160 156 148 145 144 147 150 152 150 147 144 149 158 166 169 174 199 277 315 313 331 354 5 352 345 342
175 174 176 177 177 177 175 172 169 163 156 157 162 163 161 159 157 154 150 146 141 139 142 144 144 147 148 149 153 164 178 189 205 262 277 294 312 310 320 325 328 329 328
177 174 177 177 178 178 177 175 171 167 160 158 163 169 165 159 157 153 147 145 142 139 137 139 142 149 153 155 157 165 191 219 238 261 270 286 306 312 310 308 311 313 312
179 177 177 177 177 179 179 178 175 172 168 166 167 172 172 165 159 157 154 153 150 144 138 138 144 150 153 159 168 186 219 246 262 277 284 284 295 293 291 293 302 306 308
181 180 178 177 179 179 179 180 178 177 176 175 173 175 176 175 170 165 163 160 156 148 146 148 144 151 179 269 317 316 305 305 301 301 315 332 323 295 296 302 306 303 300
181 182 180 179 180 180 181 181 180 180 182 182 182 181 182 183 180 173 165 160 157 155 151 143 139 166 334 342 345 350 334 306 307 309 305 315 319 320 308 306 308 305 296
181 182 184 184 182 182 183 184 183 185 188 190 193 192 189 187 186 183 176 169 165 166 172 146 117 306 265 92 14 356 353 346 328 325 326 322 303 297 301 304 302 302 303
183 183 184 186 186 187 186 186 186 188 191 196 200 199 194 189 189 189 186 184 180 151 166 161 120 70 80 21 323 319 323 323 321 321 321 327 317 310 302 304 304 302 290
186 188 185 187 189 191 192 190 191 192 196 202 204 202 200 196 194 192 186 165 143 134 118 123 104 55 352 347 337 331 326 323 319 316 315 314 313 307 305 303 300 302 298
184 187 188 188 192 193 193 195 196 197 202 205 206 203 201 199 194 189 174 168 164 155 129 134 122 76 335 331 323 318 316 313 312 310 311 312 305 303 303 302 305 306 305
184 185 189 190 190 193 193 195 196 199 202 203 203 203 202 195 184 176 176 175 165 165 173 188 227 305 320 314 315 311 311 308 308 308 309 308 304 302 303 305 304 310 305
188 188 190 191 189 191 192 194 198 199 197 198 197 198 200 195 190 183 182 183 183 192 209 217 232 272 295 304 313 314 309 304 303 304 307 305 304 300 299 303 306 306 301
192 191 188 190 189 190 191 191 194 197 201 201 202 203 200 194 189 191 192 190 199 215 225 220 250 281 295 301 295 300 303 306 311 316 318 320 324 326 325 314 307 306 304
197 189 184 189 190 191 189 186 188 196 196 186 181 191 196 193 196 208 209 206 216 222 235 236 260 274 282 288 298 304 311 318 323 326 324 325 328 324 321 313 308 308 307
198 190 183 184 187 190 184 186 193 192 188 187 191 196 197 199 203 209 217 227 239 241 243 245 259 278 287 299 305 314 320 320 322 324 325 322 322 322 318 315 310 308 306
196 187 189 190 187 188 191 194 200 199 197 201 208 210 213 211 208 213 228 243 263 250 244 251 267 280 293 301 310 310 314 318 320 327 328 324 318 318 317 316 319 318 312
190 192 193 198 202 192 193 198 205 204 206 215 216 221 222 220 217 221 230 230 246 247 251 255 269 286 299 313 321 326 324 321 314 324 318 325 317 321 316 317 317 318 316
190 193 199 206 208 207 204 201 207 206 213 214 215 222 229 218 215 226 221 229 250 248 252 267 284 296 310 318 324 335 325 288 317 330 309 302 308 314 320 325 327 324 319
188 196 202 206 209 220 207 209 199 202 194 201 202 210 219 226 203 34 330 186 252 252 262 278 293 303 314 317 327 325 330 323 318 318 307 294 310 320 324 330 333 333 333
190 198 206 206 209 217 210 211 217 213 215 212 207 214 231 222 209 199 222 255 249 260 280 289 308 323 318 320 316 321 327 331 330 335 325 329 329 329 337 342 341 336 330
197 202 205 204 206 213 215 217 223 229 234 224 216 298 239 12 256 231 220 226 245 259 282 310 326 327 327 323 329 332 336 338 332 333 329 333 337 336 341 350 347 346 341
Wind_Speed_850mb
65 63 62 61 57 50 44 38 38 42 39 38 37 35 33 33 34 40 41 38 35 32 31 30 28 26 23 21 21 22 22 20 19 23 24 22 19 17 14 15 14 14 13
75 72 68 64 60 52 44 38 37 38 38 37 37 37 38 38 40 42 40 36 33 31 29 27 25 22 20 19 20 21 19 18 18 22 23 20 18 16 16 16 14 14 13
75 77 71 66 62 54 46 39 36 36 36 37 38 41 42 44 45 42 39 35 31 27 24 24 22 20 18 17 17 18 18 18 18 19 16 13 13 15 17 18 17 15 14
75 79 73 68 64 56 48 41 36 34 34 37 40 43 44 45 44 40 36 31 27 23 20 20 18 16 15 15 15 14 16 18 16 11 7 6 6 9 12 18 20 20 20
78 78 73 69 64 57 50 44 37 34 33 37 41 43 44 43 40 36 32 28 24 22 19 17 16 15 14 14 15 15 20 18 13 9 4 3 4 8 15 21 21 23 24
81 77 74 70 64 58 52 46 39 34 33 35 39 40 40 38 36 33 29 25 22 19 17 18 18 17 16 16 17 19 20 16 11 5 4 8 8 11 12 18 22 24 25
82 77 73 70 65 60 53 47 41 36 33 32 36 38 37 33 32 31 29 27 25 23 21 20 20 20 20 20 18 18 19 15 10 8 11 13 16 17 17 16 21 22 25
78 76 71 68 63 59 54 49 44 37 32 29 31 35 34 32 31 29 28 28 26 25 24 22 22 22 21 18 15 13 14 16 17 14 16 16 19 23 24 23 25 24 27
75 73 70 68 62 58 54 48 44 39 34 30 30 33 34 30 29 28 27 26 25 23 21 20 18 15 11 9 8 7 7 10 13 17 20 26 32 31 30 32 32 30 33
75 73 72 69 65 61 56 50 44 41 36 31 28 29 32 31 28 27 25 23 19 17 15 12 9 6 3 2 5 8 12 13 15 14 15 20 25 28 28 26 31 34 39
77 74 73 72 67 62 58 54 48 43 39 35 31 29 31 32 30 25 22 19 16 13 10 8 5 1 2 4 5 7 11 13 11 14 18 20 19 18 22 29 34 38 38
83 77 71 69 67 64 62 59 54 50 45 38 33 31 30 30 30 27 24 20 16 13 9 5 1 3 3 2 6 9 12 12 14 17 21 23 25 27 32 37 43 43 37
86 80 73 66 64 64 65 63 57 51 46 42 36 31 30 30 31 30 25 20 13 8 8 12 9 10 8 3 6 11 15 18 22 27 28 30 32 32 34 38 41 43 39
83 77 72 67 62 63 63 62 59 54 48 43 36 32 32 32 32 31 26 20 19 15 13 9 4 1 3 6 11 15 20 23 26 32 37 38 38 39 42 44 48 50 48
80 79 73 67 62 57 57 57 53 50 46 39 36 35 34 32 30 30 30 26 18 15 10 8 5 2 8 14 20 26 30 32 34 37 39 39 40 42 42 43 44 48 53
74 73 73 68 59 55 54 52 49 45 41 39 36 35 35 34 32 30 36 26 18 11 9 9 7 8 13 19 22 28 31 32 33 37 43 45 46 47 46 46 50 45 47
72 69 71 69 62 56 52 49 47 43 40 38 35 35 37 38 36 32 28 23 16 14 14 13 12 11 17 25 32 33 36 37 40 43 45 45 46 49 51 49 41 43 47
73 68 66 66 62 58 55 51 46 41 38 37 38 36 36 35 32 30 24 20 16 16 16 12 12 18 25 33 37 37 37 37 37 37 38 37 35 33 32 30 28 26 29
77 71 68 64 60 56 52 50 41 43 38 37 36 31 37 38 33 25 28 28 24 22 27 18 18 23 30 34 37 36 33 36 37 33 34 28 34 34 31 27 30 36 38
77 74 67 59 59 58 53 46 38 46 45 41 37 34 33 36 32 31 28 29 32 36 32 26 26 27 31 36 37 36 39 42 36 37 25 38 30 31 33 37 43 46 47
77 81 73 65 61 62 63 59 52 58 49 43 41 40 42 41 41 37 34 31 30 42 38 31 28 25 28 33 38 44 46 38 36 20 38 26 34 33 39 42 43 44 45
75 83 77 68 63 64 62 65 64 60 53 50 46 43 40 49 44 42 38 28 39 47 29 25 22 21 25 31 36 40 23 37 26 41 34 40 35 48 45 49 46 43 42
74 76 72 66 60 55 68 70 67 52 46 48 48 45 43 47 44 36 36 20 32 32 27 20 19 19 22 27 31 21 11 9 46 21 35 39 48 51 59 58 52 48 45
64 69 71 64 65 60 74 72 62 51 53 50 40 34 34 42 17 11 10 11 41 29 18 14 15 20 24 28 24 20 23 28 15 20 18 31 47 55 55 52 45 39 40
63 58 66 63 68 67 73 78 66 57 64 49 34 28 25 26 5 6 23 40 33 17 11 13 16 20 25 24 27 31 33 36 28 37 27 56 54 54 54 45 41 36 40
59 66 71 68 63 69 71 70 69 60 67 49 21 6 4 9 27 34 35 30 14 10 10 12 16 20 22 25 27 30 32 34 38 37 50 57 59 62 58 48 42 46 48
Wind_Direction_850mb
183 177 170 171 170 168 165 162 160 163 163 164 163 160 155 150 149 146 144 140 139 142 138 135 134 129 128 122 114 110 109 110 107 101 95 93 94 90 70 61 50 52 58
176 175 172 172 171 169 165 159 156 157 162 164 162 160 157 154 151 148 145 143 143 140 139 141 140 135 130 127 121 116 114 113 112 104 96 96 87 73 62 52 36 21 16
174 172 173 173 173 171 166 160 156 157 159 162 161 158 154 153 152 151 149 147 145 141 141 144 143 136 130 127 124 124 126 125 121 119 101 101 81 63 48 34 18 1 350
174 173 174 174 175 173 169 162 159 155 156 159 158 155 154 155 154 155 155 152 149 148 147 148 149 142 134 132 133 135 134 137 137 136 140 115 77 40 21 2 1 348 337
173 173 175 176 175 174 172 167 162 157 154 157 158 157 157 157 158 159 159 155 152 152 154 152 150 150 145 142 145 148 144 144 148 154 173 217 304 359 3 360 355 350 337
173 174 176 177 176 175 173 169 165 160 154 157 160 160 159 160 161 160 156 148 145 144 147 150 152 150 147 144 149 158 166 169 174 199 277 315 313 331 354 5 352 345 342
175 174 176 177 177 177 175 172 169 163 156 157 162 163 161 159 157 154 150 146 141 139 142 144 144 147 148 149 153 164 178 189 205 262 277 294 312 310 320 325 328 329 328
177 174 177 177 178 178 177 175 171 167 160 158 163 169 165 159 157 153 147 145 142 139 137 139 142 149 153 155 157 165 191 219 238 261 270 286 306 312 310 308 311 313 312
179 177 177 177 177 179 179 178 175 172 168 166 167 172 172 165 159 157 154 153 150 144 138 138 144 150 153 159 168 186 219 246 262 277 284 284 295 293 291 293 302 306 308
181 180 178 177 179 179 179 180 178 177 176 175 173 175 176 175 170 165 163 160 156 148 146 148 144 151 179 269 317 316 305 305 301 301 315 332 323 295 296 302 306 303 300
181 182 180 179 180 180 181 181 180 180 182 182 182 181 182 183 180 173 165 160 157 155 151 143 139 166 334 342 345 350 334 306 307 309 305 315 319 320 308 306 308 305 296
181 182 184 184 182 182 183 184 183 185 188 190 193 192 189 187 186 183 176 169 165 166 172 146 117 306 265 92 14 356 353 346 328 325 326 322 303 297 301 304 302 302 303
183 183 184 186 186 187 186 186 186 188 191 196 200 199 194 189 189 189 186 184 180 151 166 161 120 70 80 21 323 319 323 323 321 321 321 327 317 310 302 304 304 302 290
186 188 185 187 189 191 192 190 191 192 196 202 204 202 200 196 194 192 186 165 143 134 118 123 104 55 352 347 337 331 326 323 319 316 315 314 313 307 305 303 300 302 298
184 187 188 188 192 193 193 195 196 197 202 205 206 203 201 199 194 189 174 168 164 155 129 134 122 76 335 331 323 318 316 313 312 310 311 312 305 303 303 302 305 306 305
184 185 189 190 190 193 193 195 196 199 202 203 203 203 202 195 184 176 176 175 165 165 173 188 227 305 320 314 315 311 311 308 308 308 309 308 304 302 303 305 304 310 305
188 188 190 191 189 191 192 194 198 199 197 198 197 198 200 195 190 183 182 183 183 192 209 217 232 272 295 304 313 314 309 304 303 304 307 305 304 300 299 303 306 306 301
192 191 188 190 189 190 191 191 194 197 201 201 202 203 200 194 189 191 192 190 199 215 225 220 250 281 295 301 295 300 303 306 311 316 318 320 324 326 325 314 307 306 304
197 189 184 189 190 191 189 186 188 196 196 186 181 191 196 193 196 208 209 206 216 222 235 236 260 274 282 288 298 304 311 318 323 326 324 325 328 324 321 313 308 308 307
198 190 183 184 187 190 184 186 193 192 188 187 191 196 197 199 203 209 217 227 239 241 243 245 259 278 287 299 305 314 320 320 322 324 325 322 322 322 318 315 310 308 306
196 187 189 190 187 188 191 194 200 199 197 201 208 210 213 211 208 213 228 243 263 250 244 251 267 280 293 301 310 310 314 318 320 327 328 324 318 318 317 316 319 318 312
190 192 193 198 202 192 193 198 205 204 206 215 216 221 222 220 217 221 230 230 246 247 251 255 269 286 299 313 321 326 324 321 314 324 318 325 317 321 316 317 317 318 316
190 193 199 206 208 207 204 201 207 206 213 214 215 222 229 218 215 226 221 229 250 248 252 267 284 296 310 318 324 335 325 288 317 330 309 302 308 314 320 325 327 324 319
188 196 202 206 209 220 207 209 199 202 194 201 202 210 219 226 203 34 330 186 252 252 262 278 293 303 314 317 327 325 330 323 318 318 307 294 310 320 324 330 333 333 333
190 198 206 206 209 217 210 211 217 213 215 212 207 214 231 222 209 199 222 255 249 260 280 289 308 323 318 320 316 321 327 331 330 335 325 329 329 329 337 342 341 336 330
197 202 205 204 206 213 215 217 223 229 234 224 216 298 239 12 256 231 220 226 245 259 282 310 326 327 327 323 329 332 336 338 332 333 329 333 337 336 341 350 347 346 341